Location: Charlottesville
(38.0290°N, 78.4770°W)
Time: 19:49:26
(UTC-05:00)

Tiangong 2 - Pass Details

Date: 14 October 2017
Orbit: 386 x 390 km, 42.8° (Epoch: 14 December)

Event Time Altitude Azimuth Distance (km) Brightness Sun altitude
Exits shadow 04:57:58 14° 58° (ENE) 1,217 4.3 -29.0°
Drops below altitude 10° 04:58:34 10° 62° (ENE) 1,447 4.8 -28.8°
Sets 05:00:39 0° 68° (ENE) 2,282 6.2 -28.4°
